Regional Weather Roundup
Issued by NWS Boston, MA

Home | Current Version | Previous Version | Text Only | Print | Product List | Glossary On
Versions: 1 2 3 4 5 6 7 8 9 10 11 12 13 14 15 16 17 18 19 20 21 22 23 24 25 26 27 28 29 30 31 32 33 34 35 36 37 38 39 40 41 42 43 44 45 46 47 48 49 50
000
ASUS41 KBOX 240010
RWRBOX

REGIONAL WEATHER ROUNDUP
NATIONAL WEATHER SERVICE TAUNTON MA
800 PM EDT WED JUL 23 2014

NOTE:  "FAIR" INDICATES FEW OR NO CLOUDS BELOW 12,000 FEET WITH NO
SIGNIFICANT WEATHER AND/OR OBSTRUCTIONS TO VISIBILITY.  THE FOLLOWING
OBSERVATION LOCATIONS DO NOT REPORT PRESENT WEATHER...PROVINCETOWN...
SMITHFIELD...BLOCK ISLAND...KEENE...AND OXFORD.

MAZALL-240100-
EASTERN MASSACHUSETTS

CITY           SKY/WX    TMP DP  RH WIND       PRES   REMARKS
BOSTON         MOCLDY    79  68  69 S14       29.76R
6HR MIN TEMP:  79; 6HR MAX TEMP:  92;

BEVERLY        MOCLDY    81  70  69 S10       29.74S
LAWRENCE       PTCLDY    83  71  67 SW10G18   29.76R
BEDFORD        PTCLDY    81  72  74 S15G22    29.74S
BLUE HILL        N/A     76  68  76 S17G24    29.79R
NORWOOD        PTCLDY    77  69  76 S9        29.78R
MARSHFIELD     PTCLDY    77  64  65 SW13G25   29.80S
PLYMOUTH       PTCLDY    75  62  64 SW12      29.82R
TAUNTON        PTCLDY    76  65  68 SW9G20    29.80S
NEW BEDFORD    PTCLDY    74  66  76 SW10      29.81S
$$

MAZALL-240100-
CAPE COD AND THE ISLANDS

CITY           SKY/WX    TMP DP  RH WIND       PRES   REMARKS
FALMOUTH       CLEAR     73  64  73 SW13G18   29.83S
HYANNIS        CLEAR     74  68  81 SW17G25   29.82S
CHATHAM        CLEAR     72  69  90 SW12G21   29.84
PROVINCETOWN   CLEAR     72  64  78 SW17G24   29.80F
NANTUCKET      CLEAR     69  67  93 S10       29.85S
MARTHAS VNYRD  PTCLDY    70  68  93 SW9       29.84R
$$

MAZALL-240100-
CENTRAL AND WESTERN MASSACHUSETTS

CITY           SKY/WX    TMP DP  RH WIND       PRES   REMARKS
WORCESTER      CLOUDY    78  70  76 SW12      29.82R
6HR MIN TEMP:  78; 6HR MAX TEMP:  87;

FITCHBURG      CLOUDY    84  71  65 S8        29.77S
ORANGE           N/A    N/A N/A N/A MISG      29.80R THUNDER
SPRINGFIELD    MOCLDY    82  73  73 S12       29.75S THUNDER
WESTFIELD      CLOUDY    82  66  58 N10       29.77R
NORTH ADAMS    CLOUDY    70  68  93 SW3       29.81F
PITTSFIELD     TSTM      68  67  96 W5        29.84R FOG
$$

RIZALL-240100-
RHODE ISLAND

CITY           SKY/WX    TMP DP  RH WIND       PRES   REMARKS
PROVIDENCE     MOCLDY    76  67  73 SW14      29.81R
6HR MIN TEMP:  76; 6HR MAX TEMP:  88;

NEWPORT        PTCLDY    72  67  84 S10G17    29.82F
BLOCK ISLAND   CLEAR     72  66  83 SW12      29.84S
SMITHFIELD     PTCLDY    75  66  73 SW5       29.83R
WESTERLY       PTCLDY    75  66  73 SW8       29.83S
$$

CTZALL-240100-
CONNECTICUT

CITY           SKY/WX    TMP DP  RH WIND       PRES   REMARKS
BRADLEY INTL   CLOUDY    83  71  67 S10       29.76R
6HR MIN TEMP:  83; 6HR MAX TEMP:  93;

HARTFORD       MOCLDY    80  70  71 S13       29.77R
BRIDGEPORT     PTCLDY    79  71  76 SW9       29.80R
DANBURY        PTCLDY    79  70  74 S12       29.80R
GROTON         PTCLDY    72  68  87 S6        29.80F
NEW HAVEN      PTCLDY    79  71  76 S6        29.80S
CHESTER        FAIR      75  70  83 SW9       29.82F
MERIDEN        MOCLDY    79  70  74 S10       29.78F
WILLIMANTIC    MOCLDY    79  69  71 S9        29.79S
OXFORD         PTCLDY    77  70  78 S12       29.83S
$$

MEZ002-015-021-024-NHZ003-005-008-011-012-014-VTZ005-008-240100-
NORTHERN NEW ENGLAND

CITY           SKY/WX    TMP DP  RH WIND       PRES   REMARKS
PORTLAND ME    MOCLDY    80  65  59 NW20G26   29.77R
6HR MIN TEMP:  76; 6HR MAX TEMP:  86;

BANGOR ME      LGT RAIN  70  67  90 SW7       29.76R
CONCORD NH     CLOUDY    75  65  70 NW14G24   29.78R
MANCHESTER NH  CLOUDY    85  70  60 SW7       29.72R
NASHUA NH      MOCLDY    85  72  65 VRB5      29.75R HX  91
PORTSMOUTH NH  CLOUDY    83  73  69 SW3       29.73R
JAFFREY NH     CLOUDY    78  67  68 NW12G26   29.83R THUNDER
KEENE NH       CLOUDY    70  61  73 NE7       29.82R THUNDER
BURLINGTON VT  CLOUDY    72  64  76 NW5       29.81R
MT. WASHINGTON TSTM      55  55 100 NW38        N/A  VSB 0
$$

NYZ052-076-240100-
EASTERN NEW YORK

CITY           SKY/WX    TMP DP  RH WIND       PRES   REMARKS
ALBANY         CLOUDY    74  70  87 CALM      29.80R
6HR MIN TEMP:  73; 6HR MAX TEMP:  91; 6HR PCP:  0.14;

NEW YORK CITY  MOCLDY    84  71  65 S9G16     29.78R
6HR MIN TEMP:  83; 6HR MAX TEMP:  89;

$$

ANZALL-240100-
MARINE OBSERVATIONS

STATION/POSITION TIME  TEMP    WIND        PRES    VSBY  WAVE
                       AIR SEA DIR/SP/G                  HT/PER
                 (UTC) (F)     (DEG/KT/KT) (MB)    (MI)  (FT/S)
BOSTON BUOY      NOT AVBL
BUZZARDS BAY     NOT AVBL
NANTUCKET SOUND  NOT AVBL
MASS BAY-STELLWA NOT AVBL
ISLE OF SHOALS   NOT AVBL
S OF BLOCK IS    NOT AVBL
$$

......................KEY.........................
  SKY/WX - SKY CONDITION/PRESENT WEATHER
  TMP    - TEMPERATURE IN FAHRENHEIT
  DWPT   - DEWPOINT IN FAHRENHEIT
  RH     - RELATIVE HUMIDITY IN PERCENT
  WIND   - DIRECTION AND SPEED IN MPH
  PRES   - MEAN SEA LEVEL PRESSURE IN INCHES OF HG
  WCI    - WIND CHILL INDEX
  VSB    - VISIBILITY IN MILES
  HX     - HEAT INDEX
  TC     - TEMPERATURE IN CELSIUS
  VRB    - VARIABLE WIND DIRECTION
  N/A    - NOT AVAILABLE


USA.gov is the U.S. government's official web portal to all federal, state and local government web resources and services.